Hourly Data Report for January 24, 2022

BANCROFT AUTO
ONTARIO
Current Station Operator: ECCC - MSC

45°04'17.000" N
77°52'44.000" W
330.70 m
616I001
71294
WRK

Download Data

Hourly Data (January 2022)
Hourly Data Report for January 24, 2022
TIME
LST
Temp Definition
°C
Dew Point Definition
°C
Rel Hum Definition
%
Precip. Amount Definition
mm

Wind Dir Definition
10's deg

Wind Spd Definition
km/h
Visibility Definition
km
Stn Press Definition
kPa
Hmdx Definition


Wind Chill Definition


Weather Definition


00:00 -31.3 -34.4 75 0.0   0   97.10     LegendNANA
01:00 -32.4 -35.4 75 0.0   0   97.07     LegendNANA
02:00 -32.3 -35.2 75 0.0 0 1   97.08   -33 LegendNANA
03:00 -30.2 -33.0 76 0.0 23 2   97.04   -32 LegendNANA
04:00 -27.6 -30.4 77 0.0 0 1   97.05   -29 LegendNANA
05:00 -25.7 -28.4 78 0.0   0   97.03     LegendNANA
06:00 -24.1 -26.7 79 0.0 29 7   97.04   -30 LegendNANA
07:00 -22.8 -25.4 79 0.0 30 2   97.04   -25 LegendNANA
08:00 -19.2 -22.0 79 0.0 18 7   97.03   -25 LegendNANA
09:00 -17.6 -21.9 69 0.0 17 5   97.01   -22 LegendNANA
10:00 -15.6 -22.0 58 0.0 17 4   96.93   -19 LegendNANA
11:00 -13.5 -19.6 60 0.0 19 6   96.91   -18 LegendNANA
12:00 -11.3 -17.2 61 0.0 17 6   96.80   -15 LegendNANA
13:00 -11.0 -15.9 67 0.0 18 8   96.72   -16 LegendNANA
14:00 -10.5 -14.0 75 0.2 18 7   96.66   -15 LegendNANA
15:00 -10.5 -13.6 78 0.3 17 6   96.61   -14 LegendNANA
16:00 -10.1 -12.6 82 0.4 16 5   96.61   -13 LegendNANA
17:00 -10.0 -12.2 84 0.4 16 5   96.61   -13 LegendNANA
18:00 -10.3 -12.2 86 0.3 15 3   96.62   -12 LegendNANA
19:00 -10.6 -12.6 85 0.3 15 3   96.61   -12 LegendNANA
20:00 -10.8 -12.7 86 0.1 16 2   96.60   -12 LegendNANA
21:00 -10.9 -12.8 86 0.1 15 2   96.59   -12 LegendNANA
22:00 -11.1 -12.8 87 0.1 14 2   96.57   -12 LegendNANA
23:00 -11.2 -12.8 88 0.0 15 3   96.56   -13 LegendNANA

Notes on Data Quality.

Legend

  • E = Estimated
  • M = Missing
  • NA = Not Available*
  • [empty] = Indicates an unobserved value
Date modified: